Temp
39 38 36 37 31 29 37 36 37 37 37 37 36 35 35 36 36 35 35 35 35 35 35 34 33 32 31 30 28 28 27 26 26 25 26 24 23 23 23 23 24 25 25 25
39 38 36 39 40 39 39 38 35 37 37 36 36 36 36 36 36 37 36 36 36 36 35 35 34 33 32 30 29 28 28 26 25 24 24 25 24 23 23 24 25 25 25 25
39 38 40 39 39 39 39 38 37 35 36 37 37 36 36 36 37 37 37 37 37 36 35 35 34 33 32 30 29 28 27 25 25 25 25 24 24 24 24 25 26 25 25 25
39 39 39 39 39 40 36 39 38 37 34 34 37 31 35 36 36 36 37 38 38 38 37 36 35 34 33 31 29 28 27 26 25 26 27 27 24 24 25 26 27 27 26 26
39 40 39 39 40 40 25 37 39 38 34 35 37 30 37 37 36 36 38 39 39 38 38 36 36 35 33 32 31 28 27 27 27 26 27 26 26 26 27 27 27 26 27 26
40 41 40 40 40 40 39 39 39 39 38 34 38 34 37 37 37 38 38 39 39 39 38 37 36 35 34 33 32 30 27 27 27 26 26 26 27 27 27 27 27 28 28 26
39 39 40 40 39 39 39 39 37 36 37 25 40 33 38 39 39 39 39 39 39 39 39 38 37 36 35 33 33 31 28 27 27 26 26 26 26 26 26 27 28 27 29 30
38 37 39 40 40 39 39 38 31 35 39 38 39 38 39 40 40 40 40 40 40 40 40 39 38 36 35 34 33 32 30 28 27 27 27 27 26 27 28 27 29 29 30 30
39 38 41 41 41 41 39 32 24 33 40 40 39 39 40 40 40 40 40 40 40 40 40 39 38 36 35 34 33 32 31 29 29 28 27 27 27 27 29 28 28 29 29 29
40 38 40 40 41 40 38 40 34 38 37 37 39 38 38 38 39 40 40 40 40 40 40 39 39 37 36 35 33 32 31 31 30 30 29 28 28 27 28 28 27 27 28 27
41 40 39 40 39 39 39 39 39 37 41 37 39 39 39 39 39 40 40 41 41 40 40 39 39 38 37 36 34 32 31 31 31 31 31 31 30 29 28 28 27 25 24 22
40 40 38 39 41 41 40 41 40 39 39 40 40 39 41 40 40 41 41 41 41 40 40 39 38 37 36 36 34 33 33 33 32 31 30 29 29 29 26 24 22 21 21 21
40 39 36 38 40 41 40 41 40 43 34 40 40 39 42 41 41 41 41 41 40 39 39 38 38 36 36 35 34 33 33 33 31 29 30 29 26 24 21 20 20 19 19 19
37 39 38 37 38 40 39 40 41 41 41 41 41 39 40 40 40 41 40 39 39 38 38 38 38 36 34 33 32 32 32 30 30 29 27 25 23 22 21 19 18 18 18 18
38 38 39 40 39 41 41 40 41 40 41 40 41 40 41 41 41 41 40 39 39 38 39 37 36 33 31 30 30 29 29 28 27 25 23 22 21 21 19 17 17 17 17 18
39 37 38 39 36 40 39 41 41 41 41 41 30 41 42 42 41 40 40 39 38 38 38 36 33 31 30 29 28 28 27 25 24 23 22 20 19 17 17 17 18 18 18 18
37 38 38 37 39 39 38 39 41 41 41 41 40 42 42 41 40 40 40 40 39 38 37 34 33 31 30 28 27 26 25 23 22 21 20 19 18 18 19 19 19 18 18 17
37 37 38 38 38 36 40 42 41 41 42 42 43 43 42 41 42 41 41 40 39 38 35 33 32 30 29 28 27 25 23 22 21 21 20 20 20 20 19 19 19 19 19 19
37 37 37 37 37 39 40 41 41 40 41 42 42 43 43 42 42 41 42 41 39 37 35 33 31 30 28 26 25 24 23 22 21 21 21 21 21 20 20 20 20 20 20 19
36 37 37 37 36 36 39 42 43 42 39 42 42 42 42 42 40 41 42 41 39 35 34 32 31 28 27 25 24 23 22 22 22 21 21 21 21 20 20 19 19 19 20 19
33 35 34 36 36 38 41 42 43 39 39 43 43 42 42 42 42 42 41 39 36 34 33 31 29 29 26 25 24 24 23 22 21 20 20 20 20 19 19 19 19 19 19 18
33 34 35 36 35 35 41 42 40 41 43 43 43 42 42 42 43 42 39 36 35 33 31 30 29 27 25 25 24 23 22 21 20 20 20 19 19 20 19 18 18 18 18 18
34 36 35 36 36 39 40 41 43 44 42 43 43 43 42 42 42 39 36 35 34 32 31 30 28 26 25 24 24 23 21 20 20 20 20 20 19 19 19 19 19 20 21 21
35 36 37 36 38 39 40 42 43 43 43 42 43 43 43 42 40 37 36 34 33 31 31 29 27 26 25 24 23 22 21 20 20 20 20 20 20 19 19 21 22 22 22 22
36 35 35 35 37 38 40 41 42 43 42 43 42 41 41 42 39 37 35 34 33 32 31 29 28 26 25 24 23 22 21 21 21 21 21 21 20 21 21 20 21 20 19 20
37 36 35 35 37 37 39 40 41 42 42 42 39 40 41 41 38 37 35 34 32 31 30 29 27 26 25 24 23 22 22 22 22 22 22 22 22 21 22 20 19 18 18 18
Height
725 735 751 736 749 759 740 751 754 749 750 755 760 771 773 764 763 769 769 771 774 775 777 784 788 795 801 806 813 816 821 825 828 831 832 833 836 840 839 840 841 842 842 842
729 742 740 722 718 725 730 744 761 747 747 753 762 764 763 762 760 760 764 766 768 769 773 781 787 792 798 804 811 815 818 822 826 830 833 834 836 838 839 838 838 839 840 840
731 730 716 723 728 730 729 742 746 764 752 746 754 770 768 761 756 755 755 757 761 765 771 778 783 790 797 804 809 813 817 821 825 827 830 832 835 837 837 836 835 835 836 837
723 717 723 726 729 723 756 728 732 746 772 778 751 811 769 762 764 762 758 756 754 758 766 774 778 786 792 801 807 811 815 819 822 825 826 828 830 832 832 833 832 831 833 834
725 721 729 733 722 718 801 735 731 738 760 756 752 795 758 753 765 763 753 746 749 754 760 769 776 782 789 797 803 809 813 817 819 823 824 827 827 828 829 829 830 830 830 830
715 699 711 712 714 716 718 728 727 728 737 778 748 778 765 758 753 752 747 745 746 749 757 765 774 781 786 794 799 805 810 813 817 820 823 824 825 826 827 826 827 826 826 828
726 721 708 710 724 716 720 729 755 766 758 839 729 775 747 736 735 737 744 746 744 747 752 759 767 776 782 791 795 800 807 811 814 817 820 822 824 825 825 826 825 824 823 821
742 751 721 709 714 727 725 724 782 781 749 747 733 750 746 722 724 728 732 737 741 744 746 755 764 773 781 787 792 796 803 808 812 814 817 819 820 821 821 821 821 821 818 818
727 732 701 704 704 708 725 766 795 767 717 727 736 733 725 721 731 732 731 736 742 739 745 755 763 771 779 785 790 794 799 805 808 811 814 816 817 818 817 819 820 819 818 818
700 731 709 704 703 705 723 709 763 735 757 765 737 746 751 743 740 735 735 740 739 741 747 753 760 767 775 781 787 792 797 801 804 806 809 812 814 816 817 818 819 819 818 817
692 704 721 706 723 721 723 730 719 735 715 747 748 744 721 731 731 735 734 732 735 742 746 753 757 765 772 778 785 791 795 798 801 803 804 807 810 812 814 815 816 819 818 816
691 700 729 719 698 693 702 708 710 733 737 724 717 744 706 717 721 724 728 727 732 740 746 753 760 767 773 778 783 788 792 795 797 801 806 809 811 812 813 815 817 818 819 819
692 713 742 730 711 696 711 699 702 688 731 719 724 743 702 711 718 720 723 729 736 743 749 756 763 770 774 778 783 787 791 794 799 805 806 809 813 816 818 819 821 821 821 821
690 702 716 734 720 701 723 707 696 696 707 714 718 729 719 719 723 720 726 736 741 747 753 755 763 770 778 783 787 790 793 798 802 805 810 814 817 819 821 821 821 822 822 822
695 712 701 694 697 689 698 705 701 706 693 716 707 719 714 714 717 721 728 735 743 749 750 758 766 777 783 788 792 795 799 802 806 810 814 817 820 821 822 822 823 824 826 826
692 715 701 704 717 691 701 691 694 700 698 700 756 711 694 702 708 720 728 735 744 747 752 760 771 779 785 790 794 798 802 806 810 814 817 820 822 823 825 826 828 829 830 830
699 704 708 718 698 700 719 701 691 694 691 696 707 690 692 708 715 719 724 731 739 744 753 763 771 778 784 790 796 800 805 809 813 816 819 822 824 826 828 829 830 832 833 834
692 696 698 713 705 739 689 671 681 690 687 684 678 677 689 701 704 709 714 725 734 743 754 763 770 779 786 791 797 802 808 812 815 818 821 824 826 828 830 832 833 834 835 836
683 690 705 716 713 700 689 679 685 696 699 678 681 675 682 692 698 710 708 715 728 742 755 763 772 779 786 793 799 804 809 813 816 819 822 824 827 830 832 834 835 837 837 838
688 687 699 706 717 723 689 667 658 667 713 674 676 679 683 691 722 714 702 713 728 744 755 763 771 780 788 795 801 805 810 813 816 820 823 826 829 832 834 836 838 839 839 839
706 700 709 704 709 693 664 655 655 712 709 667 669 677 680 696 693 692 704 718 733 745 755 764 773 779 788 795 800 804 809 814 819 822 826 829 832 835 837 838 839 840 840 841
699 704 702 700 712 720 652 655 682 672 660 659 660 668 679 682 682 686 704 721 733 744 754 764 771 781 789 795 799 804 810 816 821 824 828 832 835 837 839 840 842 842 842 843
691 676 688 683 686 662 652 652 642 645 658 657 657 659 670 679 684 695 710 720 733 744 752 761 772 781 788 794 799 804 812 817 822 826 830 834 837 838 840 841 842 843 842 842
664 661 672 678 666 662 657 647 641 643 650 656 656 657 662 674 683 699 711 719 730 742 749 758 768 777 784 792 799 804 811 816 821 826 830 834 836 839 841 841 841 841 842 843
649 660 669 674 663 658 654 647 641 641 647 652 660 661 667 670 685 697 706 716 726 737 747 755 762 771 780 789 796 803 809 814 819 825 828 832 835 838 840 841 842 844 844 844
638 649 664 666 654 654 653 647 644 643 645 650 660 665 666 671 684 695 706 712 720 731 742 752 760 766 776 785 793 800 806 812 817 822 825 828 831 835 837 841 844 845 847 847
Wind_Speed
14 14 4 14 24 29 14 7 12 13 12 10 8 15 16 14 13 13 9 12 9 11 12 16 13 15 13 16 15 14 15 14 15 15 10 20 18 13 12 14 15 12 10 10
11 10 10 18 5 4 7 11 8 13 11 4 6 17 15 14 12 11 11 10 11 11 14 15 15 17 16 16 16 15 14 16 14 10 11 7 6 10 14 13 12 11 11 10
15 12 14 6 9 9 10 6 11 8 11 7 12 11 16 13 11 12 12 15 16 13 14 13 16 18 16 15 17 17 16 17 16 15 13 11 8 7 11 11 10 12 12 11
14 12 8 8 10 9 7 18 9 11 8 6 7 3 15 16 14 11 11 12 12 14 15 15 15 18 17 16 18 17 17 17 16 16 14 14 16 13 10 9 8 8 8 10
14 7 11 11 7 5 4 26 10 10 19 19 22 2 18 19 17 16 14 12 14 17 14 15 17 17 19 19 18 16 17 16 14 15 11 13 14 15 10 10 5 7 7 10
14 7 7 2 4 7 15 10 11 12 15 3 14 5 11 16 17 18 13 12 12 17 16 15 20 14 18 17 18 17 16 15 15 15 13 11 8 6 2 1 3 9 7 6
19 14 6 7 9 7 12 15 10 8 8 8 12 18 9 18 15 15 18 14 12 13 15 14 16 18 17 19 17 19 18 16 15 14 12 12 10 8 6 6 7 2 5 6
17 16 14 12 9 10 14 8 3 3 4 15 6 5 12 20 15 15 16 16 16 16 16 15 13 16 16 17 17 17 19 17 16 14 12 11 10 9 9 10 6 7 8 7
21 18 21 18 13 12 5 14 16 12 14 8 8 12 9 17 16 16 16 16 14 12 16 17 17 18 18 18 16 16 16 16 16 16 13 13 12 11 8 3 4 9 7 11
17 14 16 15 8 12 14 8 12 5 4 7 10 11 15 17 18 16 16 16 16 14 14 14 14 19 18 17 16 14 14 14 14 15 14 13 12 11 8 7 8 8 10 9
26 15 18 16 14 16 11 12 3 8 9 2 9 9 17 19 18 17 16 16 18 17 15 13 14 15 16 15 16 14 14 13 13 13 11 10 9 8 7 6 3 6 8 9
28 13 13 18 17 17 13 15 14 12 9 5 7 13 17 19 19 18 16 17 18 16 15 13 12 14 15 14 14 14 13 12 10 9 7 6 3 1 11 9 11 8 9 10
23 21 11 19 19 12 10 16 16 16 12 7 3 13 18 20 18 18 17 18 15 14 14 14 14 14 14 13 13 13 11 10 10 9 9 9 10 9 11 11 11 12 12 12
13 25 19 16 17 19 19 18 17 14 7 9 14 20 21 20 20 18 20 17 15 14 15 14 14 14 15 14 13 12 12 12 11 12 12 12 14 12 11 11 13 13 12 14
12 23 27 24 15 19 20 20 19 16 13 7 22 19 22 22 20 19 20 19 17 16 16 15 15 13 16 16 15 14 14 13 14 15 14 13 13 13 12 13 14 15 16 16
20 21 25 26 24 19 8 21 18 13 15 9 14 19 20 18 18 20 20 19 18 17 16 17 16 17 17 17 17 17 16 16 16 16 16 14 14 14 15 15 16 16 16 17
22 20 22 23 19 19 16 25 16 14 12 12 13 26 25 22 21 21 20 19 18 18 18 18 17 18 19 19 19 18 18 17 17 17 16 16 16 17 17 16 16 17 17 16
20 23 19 18 21 24 9 16 12 12 12 11 17 26 25 22 22 21 20 20 19 19 18 17 19 21 21 21 20 20 19 19 18 18 17 17 17 17 16 16 16 15 15 15
15 16 16 16 19 18 20 22 20 15 12 10 13 20 25 24 21 20 20 19 20 19 17 20 23 23 23 22 21 21 20 19 19 18 17 17 17 16 15 15 14 14 14 14
19 17 13 18 23 26 19 24 14 16 14 14 14 9 20 21 17 15 20 19 20 23 24 24 26 25 24 22 22 22 21 20 19 18 19 17 16 16 15 15 14 13 13 12
20 18 20 18 16 16 21 19 17 18 13 16 19 15 17 22 17 19 18 19 23 25 27 28 27 25 24 24 23 22 21 19 19 19 18 17 16 15 14 14 12 11 12 12
22 21 15 19 19 17 22 18 21 14 17 9 18 20 15 15 19 26 25 24 23 25 30 29 26 26 26 25 24 23 21 20 20 19 18 17 15 14 13 13 11 11 12 12
21 22 18 21 18 10 12 20 15 16 14 15 8 21 22 23 19 24 23 26 24 31 32 30 29 28 26 24 23 24 23 23 21 19 18 16 14 13 13 12 11 9 6 8
22 24 19 21 21 24 18 18 20 15 15 12 10 11 21 21 23 24 24 24 24 32 31 32 32 29 27 25 23 24 25 23 22 20 18 16 15 13 11 9 8 7 7 7
13 19 21 21 21 21 25 20 16 20 16 12 8 3 12 19 23 25 23 25 24 30 31 32 31 30 29 28 25 26 26 25 23 20 18 16 15 13 11 9 7 7 7 7
17 15 17 14 22 15 15 23 22 14 18 19 11 12 18 20 23 24 22 25 32 31 33 31 30 32 31 30 28 28 26 25 23 21 19 17 16 15 12 12 10 11 10 8
Wind_Direction
205 229 277 312 142 193 239 126 120 106 147 198 111 145 163 186 179 168 181 159 174 167 145 152 153 148 163 155 162 162 154 158 173 175 186 161 172 200 231 240 247 252 252 258
193 226 224 230 5 254 181 134 140 127 162 221 192 146 161 185 190 165 190 153 159 177 149 150 157 144 160 163 167 170 172 171 182 174 183 190 204 212 225 232 237 245 247 248
222 138 206 205 173 225 187 137 147 165 159 224 177 136 161 180 181 171 181 165 169 149 144 152 164 147 154 160 167 178 177 178 183 182 186 189 192 223 221 237 234 234 232 236
229 241 197 209 249 229 306 150 182 148 133 231 198 211 174 168 189 179 179 191 179 137 150 158 160 155 159 155 161 178 178 180 186 188 182 184 177 206 221 221 230 223 221 237
226 200 195 241 257 130 171 256 155 174 164 226 166 306 155 161 175 177 206 177 150 152 156 154 159 163 153 159 158 165 177 179 182 187 201 182 204 197 204 217 190 225 224 225
228 181 214 195 119 248 170 177 184 200 225 201 200 73 157 170 169 165 179 154 157 141 142 151 141 149 149 162 165 164 171 179 185 188 196 205 185 217 242 224 236 256 226 213
221 189 176 238 178 185 217 198 189 203 208 239 109 152 170 146 167 165 156 169 172 143 151 155 155 161 160 162 172 170 178 181 186 192 197 203 207 210 226 228 245 258 250 232
207 195 178 209 218 187 230 187 45 249 281 118 140 111 105 138 158 149 148 175 152 177 152 154 150 144 163 171 180 180 178 187 190 193 200 206 211 213 220 212 252 279 304 302
200 215 172 200 218 251 226 144 235 270 152 187 134 90 105 138 161 156 167 134 153 168 142 139 153 156 164 167 178 182 177 188 195 197 202 210 216 226 248 262 253 257 258 280
240 209 191 183 226 238 224 324 208 161 235 117 128 161 133 157 162 170 137 161 148 129 139 143 156 157 163 169 170 176 179 187 193 202 197 207 212 218 231 240 253 287 298 306
243 242 189 177 207 219 205 244 262 314 304 308 147 127 138 159 166 166 159 172 146 140 142 153 149 146 156 163 160 169 174 181 190 199 197 198 198 205 224 248 327 356 3 9
231 248 185 206 205 233 253 220 204 226 146 164 92 107 141 159 161 168 165 154 144 145 140 136 136 147 147 160 157 163 171 167 186 156 168 167 171 302 67 63 49 41 45 43
209 236 244 233 197 214 235 242 260 255 314 146 265 133 146 161 160 168 158 125 129 133 138 143 145 142 146 147 148 148 162 140 129 141 143 114 89 80 75 71 66 63 61 59
255 223 227 219 218 192 207 248 233 267 203 143 110 138 145 159 161 162 129 140 146 154 153 150 139 131 127 127 129 131 117 122 122 110 106 99 87 90 84 77 72 69 65 60
238 226 233 234 256 198 199 214 225 249 276 282 138 153 155 163 164 143 146 157 158 154 158 147 133 135 134 132 128 124 121 117 117 113 111 107 102 97 94 86 81 77 74 72
224 232 234 243 197 269 220 201 208 199 253 273 268 148 154 159 159 150 159 161 163 163 152 141 140 143 140 137 133 128 123 115 119 117 110 107 102 100 95 90 87 86 82 77
218 222 224 234 214 234 197 237 197 200 202 258 257 143 150 164 162 165 164 167 169 164 153 149 150 148 142 139 136 131 128 126 121 116 112 110 108 104 101 100 95 89 84 79
221 216 224 226 230 233 207 194 221 234 201 215 255 145 153 167 167 168 168 173 165 155 152 152 148 143 142 140 134 131 129 124 120 118 116 117 115 111 108 103 98 94 91 87
244 230 221 224 228 223 216 236 202 220 213 209 238 164 158 171 171 170 171 172 162 154 156 154 147 144 137 136 136 132 128 125 124 123 123 123 120 116 112 107 104 100 97 90
228 237 234 220 230 225 204 223 216 220 221 193 224 160 158 166 183 177 165 155 152 153 160 152 144 141 140 141 140 135 134 133 130 130 127 125 123 122 118 113 109 106 100 90
213 214 221 223 229 235 223 208 214 213 214 196 191 173 195 179 191 152 154 148 153 157 156 149 148 144 144 145 143 137 136 133 133 130 128 126 124 121 120 117 113 107 101 99
201 202 211 223 218 224 229 223 208 203 220 252 181 177 190 192 203 154 156 155 157 156 152 152 143 143 148 148 145 138 134 136 135 133 130 129 128 126 123 120 115 113 112 106
203 213 214 214 217 227 249 245 230 223 207 225 210 179 188 190 178 153 157 159 156 158 156 151 148 149 149 150 147 139 142 142 139 136 135 134 132 132 131 128 131 123 125 113
201 215 220 232 213 227 236 239 249 195 225 231 204 230 182 187 161 160 160 157 159 160 158 153 153 153 150 150 150 147 147 148 147 145 144 145 144 141 141 138 135 114 103 99
182 203 218 231 245 216 225 244 259 194 213 195 177 236 187 180 167 167 165 161 159 159 158 158 157 153 152 154 153 153 155 156 154 153 153 154 151 150 148 103 99 100 86 86
234 196 205 215 220 233 218 227 249 247 217 167 181 193 204 180 176 170 169 163 159 160 160 161 158 153 154 157 158 161 164 164 161 162 165 164 160 160 154 144 122 119 119 109